TimeSAST,TemperatureF,Dew PointF,Humidity,Sea Level PressureIn,VisibilityMPH,Wind Direction,Wind SpeedMPH,Gust SpeedMPH,PrecipitationIn,Events,Conditions,WindDirDegrees,DateUTC
12:00 AM,60.8,55.4,82,30.15,-9999.0,East,4.6,-,N/A,,Clear,100,2013-02-15 22:00:00
1:00 AM,59.0,53.6,82,30.15,-9999.0,Variable,1.2,-,N/A,,Clear,0,2013-02-15 23:00:00
2:00 AM,57,53,81,30.16,19,,1.2,,,,,,2013-02-16 00:00:00
2:00 AM,57.2,53.6,88,30.15,-9999.0,North,3.5,-,N/A,,Clear,350,2013-02-16 00:00:00
3:00 AM,55.4,51.8,88,30.12,-9999.0,Variable,2.3,-,N/A,,Clear,0,2013-02-16 01:00:00
4:00 AM,55.4,50.0,82,30.12,-9999.0,NNW,3.5,-,N/A,,Clear,340,2013-02-16 02:00:00
5:00 AM,54,50,82,30.12,12,,2.3,,,,,,2013-02-16 03:00:00
5:00 AM,55.4,50.0,82,30.09,-9999.0,NNW,2.3,-,N/A,,Clear,330,2013-02-16 03:00:00
6:00 AM,53.6,50.0,88,30.12,6.2,NNW,3.5,-,N/A,,Partly Cloudy,330,2013-02-16 04:00:00
7:00 AM,55.4,51.8,88,30.12,6.2,North,3.5,-,N/A,,Partly Cloudy,350,2013-02-16 05:00:00
8:00 AM,64,56,67,30.13,12,,2.3,,,,Scattered Clouds,,2013-02-16 06:00:00
8:00 AM,64.4,55.4,73,30.12,6.2,Variable,2.3,-,N/A,,Partly Cloudy,0,2013-02-16 06:00:00
9:00 AM,68.0,57.2,68,30.12,6.2,East,9.2,-,N/A,,Partly Cloudy,90,2013-02-16 07:00:00
10:00 AM,71.6,55.4,57,30.12,6.2,ESE,9.2,-,N/A,,Partly Cloudy,120,2013-02-16 08:00:00
11:00 AM,73,55,43,30.09,12,ESE,10.4,,,,Scattered Clouds,110,2013-02-16 09:00:00
11:00 AM,73.4,55.4,53,30.09,6.2,ESE,10.4,-,N/A,,Partly Cloudy,120,2013-02-16 09:00:00
12:00 PM,73.4,59.0,61,30.09,6.2,SE,11.5,-,N/A,,Partly Cloudy,130,2013-02-16 10:00:00
1:00 PM,73.4,60.8,65,30.06,6.2,ESE,11.5,-,N/A,,Partly Cloudy,110,2013-02-16 11:00:00
2:00 PM,75,63,57,30.07,12,ESE,12.7,,,,Partly Cloudy,110,2013-02-16 12:00:00
2:00 PM,75.2,62.6,65,30.06,6.2,ESE,15.0,-,N/A,,Scattered Clouds,120,2013-02-16 12:00:00
3:00 PM,73.4,64.4,73,30.04,6.2,ESE,13.8,-,N/A,,Mostly Cloudy,110,2013-02-16 13:00:00
4:00 PM,71.6,64.4,78,30.01,6.2,East,15.0,-,N/A,,Mostly Cloudy,100,2013-02-16 14:00:00
5:00 PM,72,64,69,30.01,12,East,17.3,,,,Mostly Cloudy,100,2013-02-16 15:00:00
5:00 PM,73.4,64.4,73,30.01,6.2,ESE,18.4,-,N/A,,Scattered Clouds,120,2013-02-16 15:00:00
6:00 PM,71.6,64.4,78,29.98,6.2,ESE,17.3,-,N/A,,Scattered Clouds,110,2013-02-16 16:00:00
7:00 PM,69.8,64.4,83,29.98,6.2,ESE,16.1,-,N/A,,Scattered Clouds,110,2013-02-16 17:00:00
8:00 PM,69,65,82,30.01,12,ESE,15.0,,,,Mostly Cloudy,110,2013-02-16 18:00:00
8:00 PM,68.0,64.4,88,30.01,6.2,ESE,12.7,-,N/A,,Scattered Clouds,110,2013-02-16 18:00:00
9:00 PM,69.8,64.4,83,30.01,6.2,ESE,9.2,-,N/A,,Mostly Cloudy,110,2013-02-16 19:00:00
10:00 PM,69.8,64.4,83,30.01,6.2,East,8.1,-,N/A,,Overcast,100,2013-02-16 20:00:00
11:00 PM,68.0,62.6,83,30.01,6.2,East,4.6,-,N/A,,Mostly Cloudy,100,2013-02-16 21:00:00